Tracking 19832 objects as of 25-Aug-2019
HD Live streaming from Space Station
objects crossing your sky now

FENGYUN 1C DEB

Track FENGYUN 1C DEB now!
10-day predictions


NORAD ID: 31353
Int'l Code: 1999-025BRH
Perigee: 644.3 km
Apogee: 999.6 km
Inclination: 99.1 °
Period: 101.2 minutes
Semi major axis: 7192 km
RCS: 0.0153 m2 (small)
Launch date: May 10, 1999
Source: People's Republic of China (PRC)
Launch site: Taiyaun Space Center, China (TSC)

Note: This is SATELLITE DEBRIS
aabbcc
Your satellite tracking list
Your tracking list is empty




NASA's NSSDC Master Catalog

Two Line Element Set (TLE):
1 31353U 99025BRH 19236.25973219 +.00000143 +00000-0 +64423-4 0  9990
2 31353 099.1493 051.6269 0246939 211.7150 146.8949 14.23125448637923
Source of the keplerian elements: AFSPC